Regional Weather Roundup
Issued by NWS

Home | Current Version | Previous Version | Text Only | Print | Product List | Glossary On
Versions: 1 2 3 4 5 6 7 8 9 10 11 12 13 14 15 16 17 18 19 20 21 22 23 24 25 26 27 28 29 30 31 32 33 34 35 36 37 38 39 40 41 42 43 44 45 46 47 48 49 50
000
ASUS46 KSTO 110304
RWRCA

NORTHERN AND CENTRAL CA REGIONAL WEATHER ROUNDUP
NATIONAL WEATHER SERVICE SACRAMENTO CA
700 PM PST WED FEB 10 2016

NOTE: FAIR INDICATES FEW OR NO CLOUDS BELOW 12,000 FEET WITH NO
SIGNIFICANT WEATHER AND/OR OBSTRUCTIONS TO VISIBILITY.

CAZ001-003-110400-
NORTHWEST AREA

CITY           SKY/WX    TMP DP  RH WIND       PRES   REMARKS
CRESCENT CITY  CLEAR     54  50  86 NE5       30.20F
UKIAH          PTCLDY    58  44  60 CALM      30.18R
$$

CAZ006-505>513-110400-
BAY AREA

CITY           SKY/WX    TMP DP  RH WIND       PRES   REMARKS
SANTA ROSA     MOCLDY    60  50  69 CALM      30.15R
SAN RAFAEL     N/A       68  MM  MM MISG
NAPA           MOCLDY    61  51  70 SE5       30.16S
CONCORD        MOCLDY    60  50  69 CALM      30.16F
OAKLAND CITY   N/A       68  MM  MM MISG
OAKLAND        CLOUDY    60  51  72 W3        30.15F
SAN FRAN CITY  N/A       65  MM  51 MISG
SAN FRAN ARPT  CLOUDY    60  52  74 E3        30.15F
LIVERMORE      CLOUDY    60  49  66 NE3       30.16S
HAYWARD        CLOUDY    62  52  69 SE5       30.14F
REDWOOD CITY   N/A       MM  MM  MM MISG
MOFFETT ARPT   CLOUDY    64  50  60 CALM      30.16S
SAN JOSE ARPT  CLOUDY    65  51  60 CALM      30.16S
$$
CAZ034-037-514>518-110400-
CENTRAL COAST

CITY           SKY/WX    TMP DP  RH WIND       PRES   REMARKS
WATSONVILLE    CLOUDY    60  49  66 CALM      30.14S
SALINAS        CLOUDY    60  51  72 CALM      30.14S
MONTEREY       CLOUDY    57  50  77 CALM      30.14F
SAN LUIS OBISP CLEAR     68  44  42 S3        30.09F
SANTA MARIA    CLEAR     63  53  70 S3        30.10F
$$
CAZ015-016-110400-
NORTHERN SACRAMENTO VALLEY

CITY           SKY/WX    TMP DP  RH WIND       PRES   REMARKS
REDDING        MOCLDY    61  46  57 N3        30.18F
RED BLUFF      MOCLDY    59  45  59 W9        30.18F
OROVILLE       CLOUDY    62  48  60 N3        30.17F
$$
CAZ016>018-110400-
SOUTHERN SACRAMENTO VALLEY

CITY           SKY/WX    TMP DP  RH WIND       PRES   REMARKS
AUBURN         MOCLDY    54  46  76 CALM      30.19F
BEALE AFB      CLOUDY    58  50  75 N5        30.14F
LINCOLN        FAIR      54  46  76 NE3       30.15F
MARYSVILLE     CLOUDY    57  48  72 NW3       30.16F
PLACERVILLE    FAIR      63  41  45 NE6       30.22F
SAC INTL ARPT  MOCLDY    57  48  72 NW7       30.15F
MATHER AIRPORT NOT AVBL
DOWNTOWN SAC   N/A       61  MM  MM MISG
SAC EXEC ARPT  MOCLDY    58  47  66 CALM      30.15F
VACAVILLE      MOCLDY    59  48  67 NW6       30.18S
$$
CAZ019>021-110400-
SAN JOAQUIN VALLEY

CITY           SKY/WX    TMP DP  RH WIND       PRES   REMARKS
STOCKTON       CLOUDY    57  51  80 W6        30.15F
MODESTO        MOCLDY    62  49  62 CALM      30.16S
MERCED         MOCLDY    60  51  72 CALM      30.16S HAZE
LEMOORE        PTCLDY    60  51  72 CALM      30.18S
FRESNO         PTCLDY    63  52  67 CALM      30.18R
HANFORD        CLEAR     59  52  77 CALM      30.18S
PORTERVILLE    CLEAR    N/A N/A N/A SW3       30.19S
BAKERSFIELD    CLEAR     60  49  66 CALM      30.18F
$$
CAZ011-012-071-110400-
NORTHERN MOUNTAINS

CITY           SKY/WX    TMP DP  RH WIND       PRES   REMARKS
YREKA          MOCLDY    46  39  76 CALM      30.29F
MOUNT SHASTA   PTCLDY    47  35  63 CALM      30.29S
ALTURAS        CLOUDY    50  36  58 E5        30.33S
$$
CAZ011-012-071-110400-
SIERRA NEVADA MTNS

CITY           SKY/WX    TMP DP  RH WIND       PRES   REMARKS
BLUE CANYON    MOCLDY    56  17  21 VRB5      30.34F
TRUCKEE        MOCLDY    36  27  69 CALM      30.38S
TAHOE VLY ARPT PTCLDY    34  27  75 CALM      30.38F
MAMMOTH LAKES  FAIR      39  21  48 CALM      30.44R
$$



USA.gov is the U.S. government's official web portal to all federal, state and local government web resources and services.